timestamp,wind_dir_avg,wind_spd_avg,wind_spd_max_dir,wind_spd_gust,battery_voltage,lat,long
2022-12-02 00:04:01+00:00,173.0,22.31,173.0,24.98,12.41,47.59359,-54.27349
2022-12-02 00:14:00+00:00,173.0,20.09,170.0,27.62,12.41,47.59359,-54.27349
2022-12-02 00:24:00+00:00,171.0,21.65,171.0,27.03,12.41,47.59359,-54.27349
2022-12-02 00:34:00+00:00,173.0,22.96,170.0,27.32,12.41,47.59359,-54.27349
2022-12-02 00:44:00+00:00,175.0,23.21,177.0,26.34,12.41,47.59359,-54.27349
2022-12-02 00:54:00+00:00,173.0,21.4,170.0,25.14,12.41,47.59359,-54.27349
2022-12-02 01:04:00+00:00,174.0,22.93,173.0,27.72,12.41,47.59359,-54.27349
2022-12-02 01:14:00+00:00,172.0,22.58,168.0,26.03,12.41,47.59359,-54.27349
2022-12-02 01:24:00+00:00,177.0,19.52,170.0,22.35,12.41,47.59359,-54.27349
2022-12-02 01:34:00+00:00,194.0,21.45,188.0,26.6,12.41,47.59359,-54.27349
2022-12-02 01:44:00+00:00,210.0,16.55,211.0,19.87,12.41,47.59359,-54.27349
2022-12-02 01:54:00+00:00,218.0,16.74,219.0,19.38,12.41,47.59359,-54.27349
2022-12-02 02:04:00+00:00,218.0,15.91,223.0,19.26,12.41,47.59359,-54.27349
2022-12-02 02:14:00+00:00,218.0,11.94,234.0,16.38,12.41,47.59359,-54.27349
2022-12-02 02:24:00+00:00,229.0,9.4,229.0,11.79,12.41,47.59359,-54.27349
2022-12-02 02:34:00+00:00,250.0,13.19,246.0,14.84,12.41,47.59359,-54.27349
2022-12-02 02:44:00+00:00,250.0,10.55,258.0,13.25,12.41,47.59359,-54.27349
2022-12-02 02:54:00+00:00,250.0,8.41,257.0,10.02,12.41,47.59359,-54.27349
2022-12-02 03:04:00+00:00,253.0,9.28,255.0,11.0,12.41,47.59359,-54.27349
2022-12-02 03:14:00+00:00,251.0,10.29,259.0,12.22,12.33,47.59359,-54.27349
2022-12-02 03:24:00+00:00,251.0,9.11,261.0,10.26,12.33,47.59359,-54.27349
2022-12-02 03:34:00+00:00,248.0,8.7,245.0,9.99,12.33,47.59359,-54.27349
2022-12-02 03:44:00+00:00,244.0,8.19,237.0,10.14,12.33,47.59359,-54.27349
2022-12-02 03:54:00+00:00,235.0,7.94,236.0,8.7,12.33,47.59359,-54.27349
2022-12-02 04:04:00+00:00,228.0,7.1,219.0,8.36,12.33,47.59359,-54.27349
2022-12-02 04:14:00+00:00,224.0,6.3,218.0,7.51,12.33,47.59359,-54.27349
2022-12-02 04:24:00+00:00,231.0,7.5,236.0,8.77,12.33,47.59359,-54.27349
2022-12-02 04:34:00+00:00,237.0,8.69,236.0,10.21,12.33,47.59359,-54.27349
2022-12-02 04:44:00+00:00,236.0,8.53,240.0,10.09,12.33,47.59359,-54.27349
2022-12-02 04:54:00+00:00,230.0,6.48,230.0,7.85,12.33,47.59359,-54.27349
2022-12-02 05:04:00+00:00,227.0,7.41,227.0,8.43,12.33,47.59359,-54.27349
2022-12-02 05:14:00+00:00,233.0,8.38,233.0,9.51,12.33,47.59359,-54.27349
2022-12-02 05:24:00+00:00,228.0,7.27,224.0,8.86,12.33,47.59359,-54.27349
2022-12-02 05:34:00+00:00,235.0,8.71,234.0,10.01,12.33,47.59359,-54.27349
2022-12-02 05:44:00+00:00,243.0,7.35,247.0,7.91,12.33,47.59359,-54.27349
2022-12-02 05:54:00+00:00,237.0,8.65,240.0,9.45,12.33,47.59359,-54.27349
2022-12-02 06:04:00+00:00,246.0,7.47,253.0,8.85,12.33,47.59359,-54.27349
2022-12-02 06:14:01+00:00,250.0,8.36,246.0,10.3,12.25,47.59359,-54.27349
2022-12-02 06:24:01+00:00,254.0,8.97,257.0,11.02,12.25,47.59359,-54.27349
2022-12-02 06:34:01+00:00,254.0,8.39,248.0,9.59,12.25,47.59359,-54.27349
2022-12-02 06:44:01+00:00,241.0,8.54,243.0,9.59,12.25,47.59359,-54.27349
2022-12-02 06:54:01+00:00,255.0,8.23,250.0,9.01,12.25,47.59359,-54.27349
2022-12-02 07:04:01+00:00,264.0,8.53,262.0,9.29,12.25,47.59359,-54.27349
2022-12-02 07:14:01+00:00,258.0,8.91,261.0,10.2,12.25,47.59359,-54.27349
2022-12-02 07:24:01+00:00,257.0,7.59,260.0,9.29,12.25,47.59359,-54.27349
2022-12-02 07:34:01+00:00,260.0,7.59,260.0,9.4,12.25,47.59359,-54.27349
2022-12-02 07:44:01+00:00,256.0,7.54,251.0,8.51,12.25,47.59359,-54.27349
2022-12-02 07:54:01+00:00,257.0,6.86,257.0,7.91,12.25,47.59359,-54.27349
2022-12-02 08:04:01+00:00,254.0,6.88,259.0,7.7,12.25,47.59359,-54.27349
2022-12-02 08:14:00+00:00,258.0,5.5,264.0,7.55,12.25,47.59359,-54.27349
2022-12-02 08:24:00+00:00,254.0,7.36,256.0,8.45,12.25,47.59359,-54.27349
2022-12-02 08:34:00+00:00,256.0,7.34,255.0,9.14,12.25,47.59359,-54.27349
2022-12-02 08:44:00+00:00,258.0,7.7,263.0,10.2,12.25,47.59359,-54.27349
2022-12-02 08:54:00+00:00,259.0,7.67,263.0,9.46,12.25,47.59359,-54.27349
2022-12-02 09:04:00+00:00,265.0,6.21,263.0,8.17,12.25,47.59359,-54.27349
2022-12-02 09:14:01+00:00,268.0,6.55,266.0,7.78,12.25,47.59359,-54.27349
2022-12-02 09:24:01+00:00,271.0,5.26,278.0,8.1,12.25,47.59359,-54.27349
2022-12-02 09:34:01+00:00,273.0,6.09,274.0,8.71,12.25,47.59359,-54.27349
2022-12-02 09:44:01+00:00,256.0,5.3,261.0,7.64,12.25,47.59359,-54.27349
2022-12-02 09:54:01+00:00,262.0,5.68,267.0,9.17,12.25,47.59359,-54.27349
2022-12-02 10:04:01+00:00,274.0,5.73,272.0,7.92,12.25,47.59359,-54.27349
2022-12-02 10:14:00+00:00,283.0,7.54,288.0,9.13,12.25,47.59359,-54.27349
2022-12-02 10:24:00+00:00,272.0,8.08,271.0,9.85,12.25,47.59359,-54.27349
2022-12-02 10:34:00+00:00,262.0,6.87,267.0,9.83,12.25,47.59359,-54.27349
2022-12-02 10:44:00+00:00,259.0,7.24,263.0,9.72,12.25,47.59359,-54.27349
2022-12-02 10:54:00+00:00,270.0,8.18,272.0,10.22,12.25,47.59359,-54.27349
2022-12-02 11:04:00+00:00,269.0,8.41,266.0,10.07,12.25,47.59359,-54.27349
2022-12-02 11:14:00+00:00,250.0,6.03,253.0,9.64,12.25,47.59359,-54.27349
2022-12-02 11:24:00+00:00,268.0,9.28,268.0,10.32,12.25,47.59359,-54.27349
2022-12-02 11:34:00+00:00,263.0,9.07,262.0,10.33,12.25,47.59359,-54.27349
2022-12-02 11:44:00+00:00,259.0,8.71,264.0,10.07,12.25,47.59359,-54.27349
2022-12-02 11:54:00+00:00,260.0,4.83,261.0,6.87,12.25,47.59359,-54.27349
2022-12-02 12:04:00+00:00,267.0,8.98,271.0,10.39,12.25,47.59359,-54.27349
2022-12-02 12:14:00+00:00,262.0,8.82,263.0,10.14,14.24,47.59359,-54.27349
2022-12-02 12:24:00+00:00,268.0,9.53,262.0,10.77,14.24,47.59359,-54.27349
2022-12-02 12:34:00+00:00,270.0,9.77,273.0,10.65,14.24,47.59359,-54.27349
2022-12-02 12:44:00+00:00,266.0,9.86,266.0,10.71,14.24,47.59359,-54.27349
2022-12-02 12:54:00+00:00,265.0,8.82,260.0,10.68,14.24,47.59359,-54.27349
2022-12-02 13:04:00+00:00,271.0,8.69,268.0,10.43,14.24,47.59359,-54.27349
2022-12-02 13:14:00+00:00,274.0,8.6,273.0,10.54,13.68,47.59359,-54.27349
2022-12-02 13:24:00+00:00,275.0,9.21,269.0,10.22,13.68,47.59359,-54.27349
2022-12-02 13:34:00+00:00,275.0,8.92,272.0,10.18,13.68,47.59359,-54.27349
2022-12-02 13:44:00+00:00,276.0,10.92,273.0,12.04,13.68,47.59359,-54.27349
2022-12-02 13:54:00+00:00,284.0,9.97,286.0,11.33,13.68,47.59359,-54.27349
2022-12-02 14:04:00+00:00,275.0,9.8,273.0,11.28,13.68,47.59359,-54.27349
2022-12-02 14:14:00+00:00,279.0,10.59,280.0,17.32,14.24,47.59359,-54.27349
2022-12-02 14:24:00+00:00,286.0,9.41,286.0,10.6,14.24,47.59359,-54.27349
2022-12-02 14:34:00+00:00,288.0,9.63,288.0,11.19,14.24,47.59359,-54.27349
2022-12-02 14:44:00+00:00,283.0,9.18,280.0,10.72,14.24,47.59359,-54.27349
2022-12-02 14:54:00+00:00,275.0,10.95,277.0,12.12,14.24,47.59359,-54.27349
2022-12-02 15:04:00+00:00,270.0,8.34,269.0,9.59,14.24,47.59359,-54.27349
2022-12-02 15:14:00+00:00,280.0,8.18,282.0,10.24,14.48,47.59359,-54.27349
2022-12-02 15:24:00+00:00,291.0,9.4,292.0,10.71,14.48,47.59359,-54.27349
2022-12-02 15:34:00+00:00,271.0,10.22,277.0,11.63,14.48,47.59359,-54.27349
2022-12-02 15:44:00+00:00,274.0,9.61,280.0,12.21,14.48,47.59359,-54.27349
2022-12-02 15:54:00+00:00,281.0,11.08,283.0,12.61,14.48,47.59359,-54.27349
2022-12-02 16:04:00+00:00,274.0,7.74,277.0,9.29,14.48,47.59359,-54.27349
2022-12-02 16:14:00+00:00,279.0,8.94,280.0,10.69,14.32,47.59359,-54.27349
2022-12-02 16:24:00+00:00,287.0,9.84,290.0,11.5,14.32,47.59359,-54.27349
2022-12-02 16:34:00+00:00,286.0,9.59,286.0,11.13,14.32,47.59359,-54.27349
2022-12-02 16:44:00+00:00,276.0,12.45,271.0,17.26,14.32,47.59359,-54.27349
2022-12-02 16:54:00+00:00,268.0,12.01,268.0,16.26,14.32,47.59359,-54.27349
2022-12-02 17:04:00+00:00,274.0,8.65,289.0,10.46,14.32,47.59359,-54.27349
2022-12-02 17:14:00+00:00,274.0,8.28,280.0,9.67,13.37,47.59359,-54.27349
2022-12-02 17:24:00+00:00,271.0,8.97,270.0,10.02,13.37,47.59359,-54.27349
2022-12-02 17:34:00+00:00,272.0,8.98,277.0,10.25,13.37,47.59359,-54.27349
2022-12-02 17:44:00+00:00,279.0,6.89,279.0,7.94,13.37,47.59359,-54.27349
2022-12-02 17:54:00+00:00,282.0,8.51,285.0,10.58,13.37,47.59359,-54.27349
2022-12-02 18:04:00+00:00,282.0,9.04,276.0,10.87,13.37,47.59359,-54.27349
2022-12-02 18:14:01+00:00,293.0,7.71,297.0,8.52,13.13,47.59359,-54.27349
2022-12-02 18:24:01+00:00,302.0,8.49,297.0,9.71,13.13,47.59359,-54.27349
2022-12-02 18:34:01+00:00,292.0,8.59,283.0,10.44,13.13,47.59359,-54.27349
2022-12-02 18:44:01+00:00,295.0,8.18,299.0,10.08,13.13,47.59359,-54.27349
2022-12-02 18:54:01+00:00,295.0,8.12,306.0,9.57,13.13,47.59359,-54.27349
2022-12-02 19:04:01+00:00,292.0,7.93,294.0,10.27,13.13,47.59359,-54.27349
2022-12-02 19:14:00+00:00,307.0,10.84,304.0,12.15,12.73,47.59359,-54.27349
2022-12-02 19:24:00+00:00,304.0,10.04,303.0,11.78,12.73,47.59359,-54.27349
2022-12-02 19:34:00+00:00,296.0,9.11,292.0,10.81,12.73,47.59359,-54.27349
2022-12-02 19:44:00+00:00,305.0,6.96,297.0,9.9,12.73,47.59359,-54.27349
2022-12-02 19:54:00+00:00,297.0,7.2,287.0,9.97,12.73,47.59359,-54.27349
2022-12-02 20:04:00+00:00,307.0,6.22,293.0,10.02,12.73,47.59359,-54.27349
2022-12-02 20:14:00+00:00,294.0,9.6,294.0,11.3,12.57,47.59359,-54.27349
2022-12-02 20:24:00+00:00,285.0,10.04,289.0,10.94,12.57,47.59359,-54.27349
2022-12-02 20:34:00+00:00,292.0,10.06,297.0,11.3,12.57,47.59359,-54.27349
2022-12-02 20:44:00+00:00,297.0,7.64,288.0,11.01,12.57,47.59359,-54.27349
2022-12-02 20:54:00+00:00,288.0,9.21,289.0,10.95,12.57,47.59359,-54.27349
2022-12-02 21:04:00+00:00,292.0,9.3,297.0,10.62,12.57,47.59359,-54.27349
2022-12-02 21:14:00+00:00,296.0,9.65,299.0,10.86,12.49,47.59359,-54.27349
2022-12-02 21:24:00+00:00,300.0,10.2,296.0,11.8,12.49,47.59359,-54.27349
2022-12-02 21:34:00+00:00,297.0,10.69,290.0,14.72,12.49,47.59359,-54.27349
2022-12-02 21:44:00+00:00,290.0,9.84,285.0,11.24,12.49,47.59359,-54.27349
2022-12-02 21:54:00+00:00,293.0,10.43,297.0,11.69,12.49,47.59359,-54.27349
2022-12-02 22:04:00+00:00,286.0,9.95,290.0,11.28,12.49,47.59359,-54.27349
2022-12-02 22:14:00+00:00,294.0,7.38,286.0,10.53,12.49,47.59359,-54.27349
2022-12-02 22:24:00+00:00,291.0,10.13,295.0,11.33,12.49,47.59359,-54.27349
2022-12-02 22:34:00+00:00,299.0,7.71,301.0,11.76,12.49,47.59359,-54.27349
2022-12-02 22:44:00+00:00,292.0,9.73,296.0,11.63,12.49,47.59359,-54.27349
2022-12-02 22:54:00+00:00,293.0,7.28,289.0,10.34,12.49,47.59359,-54.27349
2022-12-02 23:04:00+00:00,312.0,7.72,302.0,11.34,12.49,47.59359,-54.27349
2022-12-02 23:14:00+00:00,309.0,8.76,301.0,11.54,12.41,47.59359,-54.27349
2022-12-02 23:24:00+00:00,297.0,8.0,294.0,10.57,12.41,47.59359,-54.27349
2022-12-02 23:34:00+00:00,310.0,6.54,298.0,10.48,12.41,47.59359,-54.27349
2022-12-02 23:44:00+00:00,328.0,5.73,317.0,7.6,12.41,47.59359,-54.27349
2022-12-02 23:54:00+00:00,318.0,5.56,291.0,9.34,12.41,47.59359,-54.27349
